Mackall AAF, NC

5:28 PM EDT on October 17, 2017 (GMT -0400)
Mackall Army Air Field

Weather History for KHFF - July, 2014

Change the Weather History Date:

Wednesday, July 23, 2014

  Actual Average Record
Temperature  
Mean Temperature 80 °F -  
Max Temperature 90 °F 88 °F 100 °F (1999)
Min Temperature 71 °F 71 °F 68 °F (2017)
Cooling Degree Days 15    
Growing Degree Days 30 (Base 50)    
Moisture  
Dew Point 72 °F    
Average Humidity 78    
Maximum Humidity 100    
Minimum Humidity 54    
Precipitation  
Precipitation 0.00 in - - ()
Sea Level Pressure  
Sea Level Pressure 30.05 in    
Wind  
Wind Speed 4 mph (SW)    
Max Wind Speed 15 mph    
Max Gust Speed 17 mph    
Visibility 11 miles    
Events Rain , Thunderstorm    
Averages and records for this station are not official NWS values.
T = Trace of Precipitation, MM = Missing Value Source: NWS Daily Summary

Daily Weather History Graph

Daily Weather History Graph

Search for Another Location

Airport or City:

Trip Planner

Search our weather history database for the weather conditions in past years. The results will help you decide how hot, cold, wet, or windy it might be!

Date:

Astronomy

Jul. 23, 2014 Rise Set
Actual Time 6:20 AM EDT 8:27 PM EDT
Civil Twilight 5:52 AM EDT 8:56 PM EDT
Nautical Twilight 5:17 AM EDT 9:30 PM EDT
Astronomical Twilight 4:39 AM EDT 10:08 PM EDT
Moon 3:37 AM EDT (7/23) 5:56 PM EDT (7/23)
Length of Visible Light 15h 04m
Length of Day
14h 07m
Waning Crescent, 10% of the Moon is Illuminated
Jul 23
Waning Crescent
Jul 26
New
Aug 3
First Quarter
Aug 10
Full
Aug 17
Last Quarter

Hourly Weather History & Observations

Time (EDT) Temp. Heat Index Dew Point Humidity Pressure Visibility Wind Dir Wind Speed Gust Speed Precip Events Conditions
12:56 AM 74.7 °F - 73.4 °F 96% 30.11 in 12.0 mi SW 2.3 mph - N/A   Clear
1:56 AM 73.6 °F - 72.5 °F 96% 30.10 in 9.0 mi Calm Calm - N/A   Scattered Clouds
2:01 AM 73.4 °F - 73.4 °F 100% 30.10 in 10.0 mi NNE 1.2 mph - N/A   Mostly Cloudy
2:11 AM 73.4 °F - 73.4 °F 100% 30.10 in 12.0 mi NW 1.2 mph - N/A   Scattered Clouds
2:56 AM 73.4 °F - 72.3 °F 96% 30.08 in 10.0 mi WSW 1.2 mph - N/A   Partly Cloudy
3:56 AM 73.0 °F - 72.0 °F 96% 30.08 in 12.0 mi SSW 1.2 mph - N/A   Clear
4:56 AM 71.8 °F - 70.9 °F 97% 30.08 in 12.0 mi ESE 1.2 mph - N/A   Partly Cloudy
5:56 AM 71.6 °F - 70.7 °F 97% 30.08 in 12.0 mi North 2.3 mph - N/A   Clear
6:56 AM 71.8 °F - 70.9 °F 97% 30.08 in 5.0 mi South 2.3 mph - N/A   Clear
7:56 AM 75.0 °F - 73.9 °F 96% 30.10 in 8.0 mi SW 3.5 mph - N/A   Clear
8:56 AM 79.7 °F - 74.1 °F 83% 30.10 in 12.0 mi West 4.6 mph - N/A   Partly Cloudy
9:56 AM 82.4 °F 88.2 °F 73.4 °F 74% 30.10 in 12.0 mi WNW 5.8 mph - N/A   Partly Cloudy
10:43 AM 84.2 °F 89.6 °F 71.6 °F 66% 30.09 in 12.0 mi WNW 5.8 mph - N/A   Mostly Cloudy
10:48 AM 82.4 °F 88.2 °F 73.4 °F 74% 30.09 in 12.0 mi West 5.8 mph - N/A   Scattered Clouds
10:57 AM 82.6 °F 88.1 °F 72.9 °F 72% 30.09 in 12.0 mi West 4.6 mph - N/A   Mostly Cloudy
11:43 AM 86.0 °F 93.4 °F 73.4 °F 66% 30.07 in 12.0 mi Variable 6.9 mph - N/A Rain Light Rain
11:57 AM 84.0 °F 90.2 °F 73.0 °F 69% 30.07 in 12.0 mi Variable 3.5 mph - N/A Rain Light Rain Showers
12:02 PM 86.0 °F 93.4 °F 73.4 °F 66% 30.07 in 12.0 mi Variable 4.6 mph - N/A   Scattered Clouds
12:56 PM 85.8 °F 90.8 °F 70.3 °F 60% 30.05 in 12.0 mi SW 3.5 mph - N/A   Mostly Cloudy
1:57 PM 88.2 °F 95.0 °F 72.0 °F 59% 30.03 in 12.0 mi SW 8.1 mph - N/A   Partly Cloudy
2:57 PM 89.6 °F 96.2 °F 71.6 °F 55% 30.01 in 12.0 mi SW 10.4 mph - N/A   Mostly Cloudy
3:56 PM 88.9 °F 97.6 °F 73.8 °F 61% 29.99 in 12.0 mi SSW 10.4 mph - N/A Thunderstorm Scattered Clouds
4:56 PM 88.2 °F 93.7 °F 70.7 °F 56% 29.97 in 12.0 mi South 15.0 mph - N/A   Clear
5:56 PM 88.9 °F 94.2 °F 70.3 °F 54% 29.97 in 12.0 mi SSW 11.5 mph 17.3 mph N/A   Partly Cloudy
6:57 PM 86.2 °F 91.4 °F 70.7 °F 60% 29.97 in 12.0 mi SSW 9.2 mph - N/A   Clear
7:57 PM 84.4 °F 90.0 °F 72.0 °F 66% 29.95 in 12.0 mi SW 6.9 mph - N/A   Clear
8:57 PM 80.8 °F 85.6 °F 73.4 °F 78% 29.95 in 12.0 mi South 6.9 mph - N/A   Clear
9:56 PM 79.5 °F - 72.9 °F 80% 29.96 in 12.0 mi South 5.8 mph - N/A   Clear
10:56 PM 77.7 °F - 73.8 °F 88% 29.96 in 12.0 mi SSW 6.9 mph - N/A   Clear
11:56 PM 77.5 °F - 74.8 °F 91% 29.95 in 12.0 mi South 8.1 mph - N/A   Partly Cloudy